Time,TemperatureF,DewpointF,PressureIn,WindDirection,WindDirectionDegrees,WindSpeedMPH,WindSpeedGustMPH,Humidity,HourlyPrecipIn,Conditions,Clouds,dailyrainin,SoftwareType,DateUTC
2013-06-29 00:01:00,69.6,68.7,29.62,West,259,16.0,16.0,97,0.00,,,0.00,WeatherCatV1.14B232,2013-06-29 04:01:00,
2013-06-29 00:06:00,69.6,68.7,29.62,WSW,255,13.0,17.0,97,0.00,,,0.00,WeatherCatV1.14B232,2013-06-29 04:06:00,
2013-06-29 00:11:00,69.7,68.8,29.61,WSW,239,11.0,15.0,97,0.00,,,0.00,WeatherCatV1.14B232,2013-06-29 04:11:00,
2013-06-29 00:16:00,69.7,68.8,29.61,West,265,8.0,14.0,97,0.00,,,0.00,WeatherCatV1.14B232,2013-06-29 04:16:00,
2013-06-29 00:21:00,69.8,68.9,29.61,WSW,257,14.0,16.0,97,0.00,,,0.00,WeatherCatV1.14B232,2013-06-29 04:21:00,
2013-06-29 00:26:00,69.8,68.9,29.61,WSW,254,17.0,17.0,97,0.00,,,0.00,WeatherCatV1.14B232,2013-06-29 04:26:00,
2013-06-29 00:31:00,69.7,68.8,29.60,West,269,9.0,13.0,97,0.00,,,0.00,WeatherCatV1.14B232,2013-06-29 04:31:00,
2013-06-29 00:36:00,69.7,68.8,29.60,WSW,250,8.0,14.0,97,0.00,,,0.00,WeatherCatV1.14B232,2013-06-29 04:36:00,
2013-06-29 00:41:00,69.6,68.7,29.60,WSW,245,14.0,14.0,97,0.00,,,0.00,WeatherCatV1.14B232,2013-06-29 04:41:00,
2013-06-29 00:46:00,69.6,68.7,29.60,West,267,7.0,13.0,97,0.00,,,0.00,WeatherCatV1.14B232,2013-06-29 04:46:00,
2013-06-29 00:51:00,69.5,68.6,29.60,SW,214,8.0,16.0,97,0.00,,,0.00,WeatherCatV1.14B232,2013-06-29 04:51:00,
2013-06-29 00:56:00,69.6,68.7,29.60,West,273,9.0,14.0,97,0.00,,,0.00,WeatherCatV1.14B232,2013-06-29 04:56:00,
2013-06-29 01:01:00,69.6,68.7,29.60,West,271,7.0,16.0,97,0.00,,,0.00,WeatherCatV1.14B232,2013-06-29 05:01:00,
2013-06-29 01:06:00,69.6,68.7,29.59,SW,236,10.0,12.0,97,0.00,,,0.00,WeatherCatV1.14B232,2013-06-29 05:06:00,
2013-06-29 01:11:00,69.7,68.8,29.59,West,263,7.0,13.0,97,0.00,,,0.00,WeatherCatV1.14B232,2013-06-29 05:11:00,
2013-06-29 01:16:00,69.7,68.8,29.59,WSW,244,12.0,13.0,97,0.00,,,0.00,WeatherCatV1.14B232,2013-06-29 05:16:00,
2013-06-29 01:21:00,69.7,68.8,29.59,WSW,252,12.0,17.0,97,0.00,,,0.00,WeatherCatV1.14B232,2013-06-29 05:21:00,
2013-06-29 01:26:00,69.8,68.9,29.59,West,276,12.0,19.0,97,0.00,,,0.00,WeatherCatV1.14B232,2013-06-29 05:26:00,
2013-06-29 01:31:00,69.9,69.0,29.58,WSW,242,9.0,14.0,97,0.00,,,0.00,WeatherCatV1.14B232,2013-06-29 05:31:00,
2013-06-29 01:36:00,69.9,69.0,29.58,West,263,6.0,10.0,97,0.00,,,0.00,WeatherCatV1.14B232,2013-06-29 05:36:00,
2013-06-29 01:41:00,70.0,69.1,29.58,SW,234,9.0,11.0,97,0.00,,,0.00,WeatherCatV1.14B232,2013-06-29 05:41:00,
2013-06-29 01:46:00,70.0,69.1,29.58,WSW,253,14.0,15.0,97,0.00,,,0.00,WeatherCatV1.14B232,2013-06-29 05:46:00,
2013-06-29 01:51:00,70.0,69.1,29.58,West,273,13.0,13.0,97,0.00,,,0.00,WeatherCatV1.14B232,2013-06-29 05:51:00,
2013-06-29 01:56:00,70.0,69.1,29.58,WSW,252,9.0,15.0,97,0.00,,,0.00,WeatherCatV1.14B232,2013-06-29 05:56:00,
2013-06-29 02:01:00,70.0,69.1,29.58,West,265,14.0,15.0,97,0.00,,,0.00,WeatherCatV1.14B232,2013-06-29 06:01:00,
2013-06-29 02:06:00,69.9,69.0,29.58,WSW,250,9.0,15.0,97,0.00,,,0.00,WeatherCatV1.14B232,2013-06-29 06:06:00,
2013-06-29 02:11:00,69.9,69.0,29.58,West,274,5.0,11.0,97,0.00,,,0.00,WeatherCatV1.14B232,2013-06-29 06:11:00,
2013-06-29 02:16:00,70.0,69.1,29.58,West,263,13.0,14.0,97,0.00,,,0.00,WeatherCatV1.14B232,2013-06-29 06:16:00,
2013-06-29 02:21:00,70.0,69.1,29.58,WSW,252,13.0,14.0,97,0.00,,,0.00,WeatherCatV1.14B232,2013-06-29 06:21:00,
2013-06-29 02:26:00,70.1,69.2,29.58,WSW,248,8.0,13.0,97,0.00,,,0.00,WeatherCatV1.14B232,2013-06-29 06:26:00,
2013-06-29 02:31:00,70.0,69.1,29.58,WNW,284,10.0,16.0,97,0.00,,,0.00,WeatherCatV1.14B232,2013-06-29 06:31:00,
2013-06-29 02:36:00,70.0,69.1,29.58,West,261,9.0,15.0,97,0.00,,,0.00,WeatherCatV1.14B232,2013-06-29 06:36:00,
2013-06-29 02:41:00,69.9,69.0,29.58,West,259,12.0,18.0,97,0.00,,,0.00,WeatherCatV1.14B232,2013-06-29 06:41:00,
2013-06-29 02:46:00,69.9,69.0,29.58,West,271,9.0,12.0,97,0.00,,,0.00,WeatherCatV1.14B232,2013-06-29 06:46:00,
2013-06-29 02:51:00,69.9,69.0,29.57,West,272,11.0,13.0,97,0.00,,,0.00,WeatherCatV1.14B232,2013-06-29 06:51:00,
2013-06-29 02:56:00,70.0,69.1,29.57,WSW,246,9.0,15.0,97,0.00,,,0.00,WeatherCatV1.14B232,2013-06-29 06:56:00,
2013-06-29 03:01:00,70.1,69.2,29.57,West,278,6.0,10.0,97,0.00,,,0.00,WeatherCatV1.14B232,2013-06-29 07:01:00,
2013-06-29 03:06:00,70.2,69.3,29.57,WSW,255,5.0,7.0,97,0.00,,,0.00,WeatherCatV1.14B232,2013-06-29 07:06:00,
2013-06-29 03:11:00,70.2,69.3,29.58,West,262,6.0,11.0,97,0.00,,,0.00,WeatherCatV1.14B232,2013-06-29 07:11:00,
2013-06-29 03:16:00,70.3,69.4,29.57,WSW,246,6.0,8.0,97,0.00,,,0.00,WeatherCatV1.14B232,2013-06-29 07:16:00,
2013-06-29 03:21:00,70.4,69.5,29.57,West,278,9.0,11.0,97,0.00,,,0.00,WeatherCatV1.14B232,2013-06-29 07:21:00,
2013-06-29 03:26:00,70.5,69.6,29.57,WSW,257,10.0,11.0,97,0.00,,,0.00,WeatherCatV1.14B232,2013-06-29 07:26:00,
2013-06-29 03:31:00,70.5,69.6,29.57,WSW,244,3.0,9.0,97,0.00,,,0.00,WeatherCatV1.14B232,2013-06-29 07:31:00,
2013-06-29 03:36:00,70.5,69.6,29.57,WSW,244,9.0,11.0,97,0.00,,,0.00,WeatherCatV1.14B232,2013-06-29 07:36:00,
2013-06-29 03:41:00,70.5,69.6,29.57,WSW,242,8.0,12.0,97,0.00,,,0.00,WeatherCatV1.14B232,2013-06-29 07:41:00,
2013-06-29 03:46:00,70.6,69.7,29.57,West,270,5.0,7.0,97,0.00,,,0.00,WeatherCatV1.14B232,2013-06-29 07:46:00,
2013-06-29 03:51:00,70.5,69.6,29.57,West,268,5.0,8.0,97,0.00,,,0.00,WeatherCatV1.14B232,2013-06-29 07:51:00,
2013-06-29 03:56:00,70.4,69.5,29.57,West,267,4.0,7.0,97,0.00,,,0.00,WeatherCatV1.14B232,2013-06-29 07:56:00,
2013-06-29 04:01:00,70.4,69.5,29.58,West,269,1.0,8.0,97,0.00,,,0.00,WeatherCatV1.14B232,2013-06-29 08:01:00,
2013-06-29 04:06:00,70.4,69.5,29.57,WNW,286,3.0,7.0,97,0.00,,,0.00,WeatherCatV1.14B232,2013-06-29 08:06:00,
2013-06-29 04:11:00,70.4,69.5,29.57,West,271,6.0,9.0,97,0.00,,,0.00,WeatherCatV1.14B232,2013-06-29 08:11:00,
2013-06-29 04:16:00,70.4,69.5,29.58,SW,230,9.0,9.0,97,0.00,,,0.00,WeatherCatV1.14B232,2013-06-29 08:16:00,
2013-06-29 04:21:00,70.4,69.5,29.58,SW,223,7.0,7.0,97,0.00,,,0.00,WeatherCatV1.14B232,2013-06-29 08:21:00,
2013-06-29 04:26:00,70.3,69.4,29.58,West,265,4.0,8.0,97,0.00,,,0.00,WeatherCatV1.14B232,2013-06-29 08:26:00,
2013-06-29 04:31:00,70.3,69.4,29.58,West,273,9.0,9.0,97,0.00,,,0.00,WeatherCatV1.14B232,2013-06-29 08:31:00,
2013-06-29 04:36:00,70.3,69.4,29.58,WSW,242,5.0,8.0,97,0.00,,,0.00,WeatherCatV1.14B232,2013-06-29 08:36:00,
2013-06-29 04:41:00,70.2,69.3,29.58,WSW,249,2.0,9.0,97,0.00,,,0.00,WeatherCatV1.14B232,2013-06-29 08:41:00,
2013-06-29 04:46:00,70.3,69.4,29.58,SSW,202,4.0,8.0,97,0.00,,,0.00,WeatherCatV1.14B232,2013-06-29 08:46:00,
2013-06-29 04:51:00,70.3,69.4,29.58,West,259,4.0,8.0,97,0.00,,,0.00,WeatherCatV1.14B232,2013-06-29 08:51:00,
2013-06-29 04:56:00,70.3,69.4,29.57,West,274,2.0,7.0,97,0.00,,,0.00,WeatherCatV1.14B232,2013-06-29 08:56:00,
2013-06-29 05:01:00,70.3,69.4,29.57,West,264,1.0,5.0,97,0.00,,,0.00,WeatherCatV1.14B232,2013-06-29 09:01:00,
2013-06-29 05:06:00,70.2,69.3,29.57,WNW,288,3.0,8.0,97,0.00,,,0.00,WeatherCatV1.14B232,2013-06-29 09:06:00,
2013-06-29 05:11:00,70.2,69.3,29.57,WSW,257,6.0,6.0,97,0.00,,,0.00,WeatherCatV1.14B232,2013-06-29 09:11:00,
2013-06-29 05:16:00,70.1,69.2,29.58,WSW,251,5.0,7.0,97,0.00,,,0.00,WeatherCatV1.14B232,2013-06-29 09:16:00,
2013-06-29 05:21:00,70.1,69.2,29.59,West,281,4.0,9.0,97,0.00,,,0.00,WeatherCatV1.14B232,2013-06-29 09:21:00,
2013-06-29 05:26:00,70.1,69.2,29.59,SSE,164,4.0,7.0,97,0.00,,,0.00,WeatherCatV1.14B232,2013-06-29 09:26:00,
2013-06-29 05:31:00,70.1,69.2,29.58,SW,215,4.0,5.0,97,0.00,,,0.00,WeatherCatV1.14B232,2013-06-29 09:31:00,
2013-06-29 05:36:00,70.1,69.2,29.58,West,264,3.0,4.0,97,0.00,,,0.00,WeatherCatV1.14B232,2013-06-29 09:36:00,
2013-06-29 05:41:00,70.1,69.2,29.59,SW,225,5.0,5.0,97,0.00,,,0.00,WeatherCatV1.14B232,2013-06-29 09:41:00,
2013-06-29 05:48:00,70.0,69.1,29.61,West,261,5.0,5.0,97,1.65,,,0.04,WeatherCatV1.14B232,2013-06-29 09:48:00,
2013-06-29 05:53:00,68.8,67.9,29.60,WSW,239,23.0,41.0,97,6.33,,,0.31,WeatherCatV1.14B232,2013-06-29 09:53:00,
2013-06-29 05:58:00,68.2,67.3,29.59,SSW,204,6.0,13.0,97,2.03,,,0.61,WeatherCatV1.14B232,2013-06-29 09:58:00,
2013-06-29 06:03:00,68.0,67.1,29.59,WNW,282,8.0,12.0,97,0.27,,,0.67,WeatherCatV1.14B232,2013-06-29 10:03:00,
2013-06-29 06:08:00,68.2,67.3,29.57,WSW,246,2.0,4.0,97,0.10,,,0.67,WeatherCatV1.14B232,2013-06-29 10:08:00,
2013-06-29 06:13:00,68.3,67.4,29.57,WSW,246,4.0,6.0,97,0.05,,,0.67,WeatherCatV1.14B232,2013-06-29 10:13:00,
2013-06-29 06:18:00,68.5,67.6,29.58,West,263,8.0,8.0,97,0.04,,,0.67,WeatherCatV1.14B232,2013-06-29 10:18:00,
2013-06-29 06:23:00,69.3,68.4,29.59,WSW,254,17.0,20.0,97,0.00,,,0.67,WeatherCatV1.14B232,2013-06-29 10:23:00,
2013-06-29 06:28:00,69.7,68.8,29.59,SSW,213,13.0,17.0,97,0.00,,,0.67,WeatherCatV1.14B232,2013-06-29 10:28:00,
2013-06-29 06:33:00,69.8,68.9,29.59,West,261,12.0,15.0,97,0.00,,,0.67,WeatherCatV1.14B232,2013-06-29 10:33:00,
2013-06-29 06:38:00,69.7,68.8,29.59,WSW,246,18.0,23.0,97,0.00,,,0.67,WeatherCatV1.14B232,2013-06-29 10:38:00,
2013-06-29 06:43:00,69.6,68.7,29.60,West,272,17.0,20.0,97,0.00,,,0.67,WeatherCatV1.14B232,2013-06-29 10:43:00,
2013-06-29 06:48:00,69.6,68.7,29.60,WNW,282,14.0,17.0,97,0.00,,,0.67,WeatherCatV1.14B232,2013-06-29 10:48:00,
2013-06-29 06:53:00,69.6,68.7,29.60,WSW,256,16.0,17.0,97,0.00,,,0.67,WeatherCatV1.14B232,2013-06-29 10:53:00,
2013-06-29 06:58:00,69.7,68.8,29.60,WSW,242,14.0,15.0,97,0.00,,,0.67,WeatherCatV1.14B232,2013-06-29 10:58:00,
2013-06-29 07:03:00,69.7,68.8,29.60,WSW,254,11.0,16.0,97,0.00,,,0.67,WeatherCatV1.14B232,2013-06-29 11:03:00,
2013-06-29 07:08:00,69.6,68.7,29.60,West,263,13.0,14.0,97,0.00,,,0.67,WeatherCatV1.14B232,2013-06-29 11:08:00,
2013-06-29 07:13:00,69.4,68.5,29.61,WSW,258,12.0,14.0,97,0.00,,,0.67,WeatherCatV1.14B232,2013-06-29 11:13:00,
2013-06-29 07:18:00,69.3,68.4,29.61,WSW,240,13.0,17.0,97,0.00,,,0.67,WeatherCatV1.14B232,2013-06-29 11:18:00,
2013-06-29 07:23:00,69.2,68.3,29.61,West,259,11.0,14.0,97,0.00,,,0.67,WeatherCatV1.14B232,2013-06-29 11:23:00,
2013-06-29 07:28:00,69.2,68.3,29.61,WSW,249,8.0,12.0,97,0.00,,,0.67,WeatherCatV1.14B232,2013-06-29 11:28:00,
2013-06-29 07:33:00,69.3,68.4,29.61,WSW,257,12.0,12.0,97,0.00,,,0.67,WeatherCatV1.14B232,2013-06-29 11:33:00,
2013-06-29 07:38:00,69.3,68.4,29.61,WSW,239,13.0,21.0,97,0.00,,,0.67,WeatherCatV1.14B232,2013-06-29 11:38:00,
2013-06-29 07:43:00,69.3,68.4,29.61,West,259,15.0,15.0,97,0.00,,,0.67,WeatherCatV1.14B232,2013-06-29 11:43:00,
2013-06-29 07:48:00,69.4,68.5,29.62,WSW,238,11.0,13.0,97,0.00,,,0.67,WeatherCatV1.14B232,2013-06-29 11:48:00,
2013-06-29 07:53:00,69.4,68.5,29.62,West,265,12.0,14.0,97,0.00,,,0.67,WeatherCatV1.14B232,2013-06-29 11:53:00,
2013-06-29 07:58:00,69.5,68.6,29.62,West,260,9.0,14.0,97,0.00,,,0.67,WeatherCatV1.14B232,2013-06-29 11:58:00,
2013-06-29 08:03:00,69.6,68.7,29.62,WSW,255,11.0,13.0,97,0.00,,,0.67,WeatherCatV1.14B232,2013-06-29 12:03:00,
2013-06-29 08:08:00,69.7,68.8,29.62,West,267,9.0,13.0,97,0.00,,,0.67,WeatherCatV1.14B232,2013-06-29 12:08:00,
2013-06-29 08:13:00,69.7,68.8,29.62,WSW,244,7.0,14.0,97,0.00,,,0.67,WeatherCatV1.14B232,2013-06-29 12:13:00,
2013-06-29 08:18:00,69.7,68.8,29.62,SW,223,8.0,11.0,97,0.00,,,0.67,WeatherCatV1.14B232,2013-06-29 12:18:00,
2013-06-29 08:23:00,69.6,68.7,29.63,West,265,10.0,15.0,97,0.00,,,0.67,WeatherCatV1.14B232,2013-06-29 12:23:00,
2013-06-29 08:28:00,69.7,68.8,29.63,West,261,12.0,13.0,97,0.00,,,0.67,WeatherCatV1.14B232,2013-06-29 12:28:00,
2013-06-29 08:33:00,69.8,68.9,29.63,WSW,255,10.0,14.0,97,0.00,,,0.67,WeatherCatV1.14B232,2013-06-29 12:33:00,
2013-06-29 08:38:00,69.7,68.8,29.63,West,259,12.0,18.0,97,0.00,,,0.67,WeatherCatV1.14B232,2013-06-29 12:38:00,
2013-06-29 08:43:00,69.6,68.7,29.64,WSW,252,12.0,14.0,97,0.00,,,0.67,WeatherCatV1.14B232,2013-06-29 12:43:00,
2013-06-29 08:48:00,69.5,68.6,29.64,West,266,15.0,17.0,97,0.00,,,0.67,WeatherCatV1.14B232,2013-06-29 12:48:00,
2013-06-29 08:53:00,69.5,68.6,29.64,WNW,282,14.0,18.0,97,0.00,,,0.67,WeatherCatV1.14B232,2013-06-29 12:53:00,
2013-06-29 08:55:00,69.5,68.6,29.64,West,261,13.0,17.0,97,0.00,,,0.00,WeatherCatV1.14B232,2013-06-29 12:55:00,
2013-06-29 09:00:00,69.5,68.6,29.64,West,261,13.0,17.0,97,0.00,,,0.00,WeatherCatV1.14B232,2013-06-29 13:00:00,
2013-06-29 09:05:00,69.5,68.6,29.64,West,270,12.0,19.0,97,0.00,,,0.00,WeatherCatV1.14B232,2013-06-29 13:05:00,
2013-06-29 09:10:00,69.5,68.6,29.64,West,270,12.0,19.0,97,0.00,,,0.00,WeatherCatV1.14B232,2013-06-29 13:10:00,
2013-06-29 09:15:00,69.5,68.6,29.64,West,270,12.0,19.0,97,0.00,,,0.00,WeatherCatV1.14B232,2013-06-29 13:15:00,
2013-06-29 09:20:00,69.5,68.6,29.64,West,270,12.0,19.0,97,0.00,,,0.00,WeatherCatV1.14B232,2013-06-29 13:20:00,
2013-06-29 09:25:00,69.5,68.6,29.64,West,270,12.0,19.0,97,0.00,,,0.00,WeatherCatV1.14B232,2013-06-29 13:25:00,
2013-06-29 09:30:00,69.5,68.6,29.64,West,270,12.0,19.0,97,0.00,,,0.00,WeatherCatV1.14B232,2013-06-29 13:30:00,
2013-06-29 09:35:00,69.6,68.7,29.64,West,270,12.0,17.0,97,0.00,,,0.00,WeatherCatV1.14B232,2013-06-29 13:35:00,
2013-06-29 09:40:00,69.6,68.7,29.64,West,270,12.0,17.0,97,0.00,,,0.00,WeatherCatV1.14B232,2013-06-29 13:40:00,
2013-06-29 09:45:00,69.6,68.7,29.64,West,270,12.0,17.0,97,0.00,,,0.00,WeatherCatV1.14B232,2013-06-29 13:45:00,
2013-06-29 09:50:00,69.6,68.7,29.64,West,270,12.0,17.0,97,0.00,,,0.00,WeatherCatV1.14B232,2013-06-29 13:50:00,
2013-06-29 09:55:00,69.6,68.7,29.64,West,270,12.0,17.0,97,0.00,,,0.00,WeatherCatV1.14B232,2013-06-29 13:55:00,
2013-06-29 10:05:00,69.5,68.6,29.64,West,270,12.0,19.0,97,0.00,,,0.00,WeatherCatV1.14B232,2013-06-29 14:05:00,
2013-06-29 10:07:00,69.6,68.7,29.64,West,270,12.0,17.0,97,0.00,,,0.00,WeatherCatV1.14B232,2013-06-29 14:07:00,
2013-06-29 10:10:00,69.6,68.7,29.64,West,270,12.0,17.0,97,0.00,,,0.00,WeatherCatV1.14B232,2013-06-29 14:10:00,
2013-06-29 10:15:00,69.6,68.7,29.64,West,270,12.0,17.0,97,0.00,,,0.00,WeatherCatV1.14B232,2013-06-29 14:15:00,
2013-06-29 10:20:00,69.6,68.7,29.64,West,270,12.0,17.0,97,0.00,,,0.00,WeatherCatV1.14B232,2013-06-29 14:20:00,
2013-06-29 10:25:00,69.6,68.7,29.64,West,270,12.0,17.0,97,0.00,,,0.00,WeatherCatV1.14B232,2013-06-29 14:25:00,
2013-06-29 10:30:00,69.6,68.7,29.64,West,270,12.0,17.0,97,0.00,,,0.00,WeatherCatV1.14B232,2013-06-29 14:30:00,
2013-06-29 10:40:00,69.6,68.7,29.64,West,270,12.0,17.0,97,0.00,,,0.00,WeatherCatV1.14B232,2013-06-29 14:40:00,
2013-06-29 10:41:00,69.6,68.7,29.64,West,270,12.0,17.0,97,0.00,,,0.00,WeatherCatV1.14B232,2013-06-29 14:41:00,
2013-06-29 10:45:00,69.6,68.7,29.64,West,270,12.0,17.0,97,0.00,,,0.00,WeatherCatV1.14B232,2013-06-29 14:45:00,
2013-06-29 10:50:00,69.6,68.7,29.64,West,270,12.0,17.0,97,0.00,,,0.00,WeatherCatV1.14B232,2013-06-29 14:50:00,
2013-06-29 10:55:00,69.6,68.7,29.64,West,270,12.0,17.0,97,0.00,,,0.00,WeatherCatV1.14B232,2013-06-29 14:55:00,
2013-06-29 11:00:00,69.6,68.7,29.64,West,270,12.0,17.0,97,0.00,,,0.00,WeatherCatV1.14B232,2013-06-29 15:00:00,
2013-06-29 11:10:00,69.6,68.7,29.64,West,270,12.0,17.0,97,0.00,,,0.00,WeatherCatV1.14B232,2013-06-29 15:10:00,
2013-06-29 11:13:00,69.6,68.7,29.64,West,270,12.0,17.0,97,0.00,,,0.00,WeatherCatV1.14B232,2013-06-29 15:13:00,
2013-06-29 11:15:00,69.6,68.7,29.64,West,270,12.0,17.0,97,0.00,,,0.00,WeatherCatV1.14B232,2013-06-29 15:15:00,
2013-06-29 11:20:00,69.6,68.7,29.64,West,270,12.0,17.0,97,0.00,,,0.00,WeatherCatV1.14B232,2013-06-29 15:20:00,
2013-06-29 11:25:00,69.6,68.7,29.64,West,270,12.0,17.0,97,0.00,,,0.00,WeatherCatV1.14B232,2013-06-29 15:25:00,
2013-06-29 11:30:00,69.6,68.7,29.64,West,270,12.0,17.0,97,0.00,,,0.00,WeatherCatV1.14B232,2013-06-29 15:30:00,
2013-06-29 11:40:00,69.6,68.7,29.64,West,270,12.0,17.0,97,0.00,,,0.00,WeatherCatV1.14B232,2013-06-29 15:40:00,
2013-06-29 11:43:00,69.6,68.7,29.64,West,270,12.0,17.0,97,0.00,,,0.00,WeatherCatV1.14B232,2013-06-29 15:43:00,
2013-06-29 11:45:00,69.6,68.7,29.64,West,270,12.0,17.0,97,0.00,,,0.00,WeatherCatV1.14B232,2013-06-29 15:45:00,
2013-06-29 11:50:00,69.6,68.7,29.64,West,270,12.0,17.0,97,0.00,,,0.00,WeatherCatV1.14B232,2013-06-29 15:50:00,
2013-06-29 11:55:00,69.6,68.7,29.64,West,270,12.0,17.0,97,0.00,,,0.00,WeatherCatV1.14B232,2013-06-29 15:55:00,
2013-06-29 12:00:00,69.6,68.7,29.64,West,270,12.0,17.0,97,0.00,,,0.00,WeatherCatV1.14B232,2013-06-29 16:00:00,
2013-06-29 12:13:00,69.6,68.7,29.64,West,270,12.0,17.0,97,0.00,,,0.00,WeatherCatV1.14B232,2013-06-29 16:13:00,
2013-06-29 12:18:00,69.5,68.3,29.66,West,265,13.0,20.0,96,0.06,,,0.73,WeatherCatV1.14B232,2013-06-29 16:18:00,
2013-06-29 12:23:00,69.6,68.4,29.66,West,267,14.0,16.0,96,0.06,,,0.73,WeatherCatV1.14B232,2013-06-29 16:23:00,
2013-06-29 12:28:00,69.7,68.5,29.66,WSW,250,11.0,14.0,96,0.05,,,0.73,WeatherCatV1.14B232,2013-06-29 16:28:00,
2013-06-29 12:33:00,69.8,68.6,29.66,West,259,11.0,15.0,96,0.04,,,0.73,WeatherCatV1.14B232,2013-06-29 16:33:00,
2013-06-29 12:38:00,70.1,68.9,29.66,West,265,11.0,16.0,96,0.00,,,0.73,WeatherCatV1.14B232,2013-06-29 16:38:00,
2013-06-29 12:43:00,70.3,69.1,29.66,West,274,11.0,13.0,96,0.00,,,0.73,WeatherCatV1.14B232,2013-06-29 16:43:00,
2013-06-29 12:48:00,70.4,69.2,29.66,West,259,9.0,12.0,96,0.00,,,0.73,WeatherCatV1.14B232,2013-06-29 16:48:00,
2013-06-29 12:53:00,70.5,69.3,29.66,West,271,10.0,14.0,96,0.00,,,0.73,WeatherCatV1.14B232,2013-06-29 16:53:00,
2013-06-29 12:58:00,70.5,69.0,29.66,WSW,257,13.0,14.0,95,0.00,,,0.73,WeatherCatV1.14B232,2013-06-29 16:58:00,
2013-06-29 13:03:00,70.8,69.3,29.67,WSW,254,10.0,16.0,95,0.00,,,0.73,WeatherCatV1.14B232,2013-06-29 17:03:00,
2013-06-29 13:08:00,70.5,69.0,29.67,WSW,247,10.0,16.0,95,0.00,,,0.73,WeatherCatV1.14B232,2013-06-29 17:08:00,
2013-06-29 13:13:00,70.2,68.7,29.67,West,261,13.0,16.0,95,0.00,,,0.73,WeatherCatV1.14B232,2013-06-29 17:13:00,
2013-06-29 13:18:00,70.5,68.7,29.67,WSW,246,10.0,17.0,94,0.00,,,0.73,WeatherCatV1.14B232,2013-06-29 17:18:00,
2013-06-29 13:23:00,70.8,69.0,29.67,WSW,257,13.0,15.0,94,0.00,,,0.73,WeatherCatV1.14B232,2013-06-29 17:23:00,
2013-06-29 13:28:00,70.8,68.7,29.67,WSW,238,12.0,17.0,93,0.00,,,0.73,WeatherCatV1.14B232,2013-06-29 17:28:00,
2013-06-29 13:33:00,70.8,68.7,29.67,WSW,257,15.0,15.0,93,0.00,,,0.73,WeatherCatV1.14B232,2013-06-29 17:33:00,
2013-06-29 13:38:00,70.8,68.7,29.67,West,267,12.0,17.0,93,0.00,,,0.73,WeatherCatV1.14B232,2013-06-29 17:38:00,
2013-06-29 13:43:00,71.3,68.8,29.67,WSW,251,13.0,17.0,92,0.00,,,0.73,WeatherCatV1.14B232,2013-06-29 17:43:00,
2013-06-29 13:48:00,71.4,68.9,29.68,WSW,253,13.0,19.0,92,0.00,,,0.73,WeatherCatV1.14B232,2013-06-29 17:48:00,
2013-06-29 13:53:00,71.6,69.1,29.68,West,279,14.0,19.0,92,0.00,,,0.73,WeatherCatV1.14B232,2013-06-29 17:53:00,
2013-06-29 13:58:00,71.9,69.1,29.68,SW,231,15.0,17.0,91,0.00,,,0.73,WeatherCatV1.14B232,2013-06-29 17:58:00,
2013-06-29 14:03:00,72.2,69.4,29.68,West,259,10.0,16.0,91,0.00,,,0.73,WeatherCatV1.14B232,2013-06-29 18:03:00,
2013-06-29 14:08:00,72.1,69.0,29.68,West,262,12.0,17.0,90,0.00,,,0.73,WeatherCatV1.14B232,2013-06-29 18:08:00,
2013-06-29 14:13:00,72.1,69.3,29.68,WSW,254,10.0,15.0,91,0.00,,,0.73,WeatherCatV1.14B232,2013-06-29 18:13:00,
2013-06-29 14:18:00,72.1,69.0,29.68,WSW,251,12.0,18.0,90,0.00,,,0.73,WeatherCatV1.14B232,2013-06-29 18:18:00,
2013-06-29 14:23:00,71.8,68.7,29.68,WSW,257,17.0,18.0,90,0.00,,,0.73,WeatherCatV1.14B232,2013-06-29 18:23:00,
2013-06-29 14:28:00,71.7,68.6,29.68,SW,236,13.0,17.0,90,0.00,,,0.73,WeatherCatV1.14B232,2013-06-29 18:28:00,
2013-06-29 14:33:00,72.0,68.9,29.68,WSW,254,10.0,15.0,90,0.00,,,0.73,WeatherCatV1.14B232,2013-06-29 18:33:00,
2013-06-29 14:38:00,72.4,69.3,29.68,West,269,13.0,15.0,90,0.00,,,0.73,WeatherCatV1.14B232,2013-06-29 18:38:00,
2013-06-29 14:43:00,71.9,68.8,29.69,WSW,246,12.0,16.0,90,0.00,,,0.73,WeatherCatV1.14B232,2013-06-29 18:43:00,
2013-06-29 14:48:00,71.5,68.4,29.69,WSW,247,14.0,18.0,90,0.00,,,0.73,WeatherCatV1.14B232,2013-06-29 18:48:00,
2013-06-29 14:53:00,71.3,68.5,29.69,West,270,12.0,17.0,91,0.00,,,0.73,WeatherCatV1.14B232,2013-06-29 18:53:00,
2013-06-29 14:58:00,71.1,68.7,29.69,West,272,14.0,15.0,92,0.00,,,0.73,WeatherCatV1.14B232,2013-06-29 18:58:00,
2013-06-29 15:03:00,71.1,68.7,29.68,WSW,252,15.0,17.0,92,0.00,,,0.73,WeatherCatV1.14B232,2013-06-29 19:03:00,
2013-06-29 15:08:00,71.4,69.3,29.68,WSW,244,16.0,18.0,93,0.00,,,0.73,WeatherCatV1.14B232,2013-06-29 19:08:00,
2013-06-29 15:13:00,71.7,69.2,29.68,WSW,252,9.0,16.0,92,0.00,,,0.73,WeatherCatV1.14B232,2013-06-29 19:13:00,
2013-06-29 15:18:00,71.7,69.2,29.69,West,273,12.0,14.0,92,0.00,,,0.73,WeatherCatV1.14B232,2013-06-29 19:18:00,
2013-06-29 15:24:00,72.0,69.5,29.68,West,265,14.0,14.0,92,0.00,,,0.73,WeatherCatV1.14B232,2013-06-29 19:24:00,
2013-06-29 15:29:00,72.2,69.7,29.68,West,271,10.0,13.0,92,0.00,,,0.73,WeatherCatV1.14B232,2013-06-29 19:29:00,
2013-06-29 15:34:00,72.6,69.8,29.68,WSW,253,11.0,17.0,91,0.00,,,0.73,WeatherCatV1.14B232,2013-06-29 19:34:00,
2013-06-29 15:39:00,72.7,69.6,29.69,West,270,14.0,17.0,90,0.00,,,0.73,WeatherCatV1.14B232,2013-06-29 19:39:00,
2013-06-29 15:44:00,72.6,69.5,29.68,West,262,12.0,17.0,90,0.00,,,0.73,WeatherCatV1.14B232,2013-06-29 19:44:00,
2013-06-29 15:49:00,72.3,69.2,29.69,West,259,12.0,14.0,90,0.00,,,0.73,WeatherCatV1.14B232,2013-06-29 19:49:00,
2013-06-29 15:54:00,72.2,69.1,29.69,West,267,14.0,17.0,90,0.00,,,0.73,WeatherCatV1.14B232,2013-06-29 19:54:00,
2013-06-29 15:59:00,72.1,69.3,29.69,SW,233,16.0,17.0,91,0.00,,,0.73,WeatherCatV1.14B232,2013-06-29 19:59:00,
2013-06-29 16:04:00,72.1,69.3,29.69,WSW,253,16.0,16.0,91,0.00,,,0.73,WeatherCatV1.14B232,2013-06-29 20:04:00,
2013-06-29 16:09:00,72.2,69.7,29.69,WSW,254,13.0,16.0,92,0.00,,,0.73,WeatherCatV1.14B232,2013-06-29 20:09:00,
2013-06-29 16:14:00,72.3,69.5,29.69,SW,219,12.0,19.0,91,0.00,,,0.73,WeatherCatV1.14B232,2013-06-29 20:14:00,
2013-06-29 16:19:00,72.5,69.7,29.69,West,265,15.0,21.0,91,0.00,,,0.73,WeatherCatV1.14B232,2013-06-29 20:19:00,
2013-06-29 16:24:00,72.7,69.9,29.69,West,265,17.0,18.0,91,0.00,,,0.73,WeatherCatV1.14B232,2013-06-29 20:24:00,
2013-06-29 16:29:00,72.6,69.8,29.70,West,263,17.0,18.0,91,0.00,,,0.73,WeatherCatV1.14B232,2013-06-29 20:29:00,
2013-06-29 16:34:00,72.3,69.8,29.70,West,259,13.0,17.0,92,0.00,,,0.73,WeatherCatV1.14B232,2013-06-29 20:34:00,
2013-06-29 16:39:00,72.2,69.7,29.70,West,267,13.0,15.0,92,0.00,,,0.73,WeatherCatV1.14B232,2013-06-29 20:39:00,
2013-06-29 16:44:00,72.5,70.0,29.70,West,265,16.0,18.0,92,0.00,,,0.73,WeatherCatV1.14B232,2013-06-29 20:44:00,
2013-06-29 16:49:00,72.2,69.7,29.70,WSW,252,16.0,19.0,92,0.00,,,0.73,WeatherCatV1.14B232,2013-06-29 20:49:00,
2013-06-29 16:54:00,72.0,69.5,29.70,WSW,243,17.0,20.0,92,0.00,,,0.73,WeatherCatV1.14B232,2013-06-29 20:54:00,
2013-06-29 16:59:00,71.8,69.3,29.70,WSW,252,13.0,19.0,92,0.00,,,0.73,WeatherCatV1.14B232,2013-06-29 20:59:00,
2013-06-29 17:04:00,71.7,69.6,29.70,West,265,12.0,18.0,93,0.00,,,0.73,WeatherCatV1.14B232,2013-06-29 21:04:00,
2013-06-29 17:09:00,71.5,69.4,29.70,West,263,19.0,19.0,93,0.00,,,0.73,WeatherCatV1.14B232,2013-06-29 21:09:00,
2013-06-29 17:14:00,71.5,69.4,29.70,West,273,14.0,19.0,93,0.00,,,0.73,WeatherCatV1.14B232,2013-06-29 21:14:00,
2013-06-29 17:19:00,71.6,69.5,29.70,West,273,12.0,18.0,93,0.00,,,0.73,WeatherCatV1.14B232,2013-06-29 21:19:00,
2013-06-29 17:24:00,71.3,69.2,29.70,WSW,254,15.0,19.0,93,0.00,,,0.73,WeatherCatV1.14B232,2013-06-29 21:24:00,
2013-06-29 17:29:00,71.1,69.0,29.70,WSW,250,15.0,22.0,93,0.00,,,0.73,WeatherCatV1.14B232,2013-06-29 21:29:00,
2013-06-29 17:34:00,71.1,69.3,29.70,West,271,16.0,20.0,94,0.00,,,0.73,WeatherCatV1.14B232,2013-06-29 21:34:00,
2013-06-29 17:39:00,71.1,69.3,29.70,West,267,15.0,23.0,94,0.00,,,0.73,WeatherCatV1.14B232,2013-06-29 21:39:00,
2013-06-29 17:44:00,71.0,69.2,29.70,West,263,10.0,18.0,94,0.00,,,0.73,WeatherCatV1.14B232,2013-06-29 21:44:00,
2013-06-29 17:49:00,70.8,69.0,29.70,West,265,13.0,18.0,94,0.00,,,0.73,WeatherCatV1.14B232,2013-06-29 21:49:00,
2013-06-29 17:54:00,70.7,68.9,29.70,West,274,16.0,17.0,94,0.00,,,0.73,WeatherCatV1.14B232,2013-06-29 21:54:00,
2013-06-29 17:59:00,70.7,68.9,29.71,West,267,18.0,19.0,94,0.00,,,0.73,WeatherCatV1.14B232,2013-06-29 21:59:00,
2013-06-29 18:04:00,70.6,68.8,29.71,WSW,251,16.0,18.0,94,0.00,,,0.73,WeatherCatV1.14B232,2013-06-29 22:04:00,
2013-06-29 18:09:00,70.6,68.5,29.71,WSW,251,7.0,17.0,93,0.00,,,0.73,WeatherCatV1.14B232,2013-06-29 22:09:00,
2013-06-29 18:14:00,70.7,68.9,29.70,WSW,251,14.0,18.0,94,0.00,,,0.73,WeatherCatV1.14B232,2013-06-29 22:14:00,
2013-06-29 18:19:00,70.8,69.0,29.70,West,266,17.0,19.0,94,0.00,,,0.73,WeatherCatV1.14B232,2013-06-29 22:19:00,
2013-06-29 18:24:00,70.8,69.0,29.70,WSW,245,16.0,20.0,94,0.00,,,0.73,WeatherCatV1.14B232,2013-06-29 22:24:00,
2013-06-29 18:29:00,70.8,69.0,29.70,WSW,253,15.0,16.0,94,0.00,,,0.73,WeatherCatV1.14B232,2013-06-29 22:29:00,
2013-06-29 18:34:00,70.8,69.0,29.70,WSW,256,14.0,18.0,94,0.00,,,0.73,WeatherCatV1.14B232,2013-06-29 22:34:00,
2013-06-29 18:39:00,70.8,69.0,29.71,WSW,258,12.0,18.0,94,0.00,,,0.73,WeatherCatV1.14B232,2013-06-29 22:39:00,
2013-06-29 18:44:00,70.8,69.0,29.71,West,267,14.0,20.0,94,0.00,,,0.73,WeatherCatV1.14B232,2013-06-29 22:44:00,
2013-06-29 18:49:00,70.7,68.9,29.71,WSW,252,15.0,19.0,94,0.00,,,0.73,WeatherCatV1.14B232,2013-06-29 22:49:00,
2013-06-29 18:54:00,70.7,68.9,29.71,WSW,253,12.0,19.0,94,0.00,,,0.73,WeatherCatV1.14B232,2013-06-29 22:54:00,
2013-06-29 18:59:00,70.7,68.9,29.71,SW,229,16.0,18.0,94,0.00,,,0.73,WeatherCatV1.14B232,2013-06-29 22:59:00,
2013-06-29 19:04:00,70.7,68.9,29.71,West,261,14.0,19.0,94,0.00,,,0.73,WeatherCatV1.14B232,2013-06-29 23:04:00,
2013-06-29 19:09:00,70.8,69.0,29.71,WSW,254,16.0,17.0,94,0.00,,,0.73,WeatherCatV1.14B232,2013-06-29 23:09:00,
2013-06-29 19:14:00,70.9,69.1,29.71,West,261,14.0,20.0,94,0.00,,,0.73,WeatherCatV1.14B232,2013-06-29 23:14:00,
2013-06-29 19:19:00,71.0,69.2,29.71,West,275,14.0,20.0,94,0.00,,,0.73,WeatherCatV1.14B232,2013-06-29 23:19:00,
2013-06-29 19:24:00,71.0,69.2,29.71,West,268,15.0,19.0,94,0.00,,,0.73,WeatherCatV1.14B232,2013-06-29 23:24:00,
2013-06-29 19:29:00,70.9,69.1,29.71,West,275,13.0,19.0,94,0.00,,,0.73,WeatherCatV1.14B232,2013-06-29 23:29:00,
2013-06-29 19:34:00,70.8,69.0,29.72,West,279,13.0,19.0,94,0.00,,,0.73,WeatherCatV1.14B232,2013-06-29 23:34:00,
2013-06-29 19:39:00,70.8,69.0,29.72,SW,235,13.0,17.0,94,0.00,,,0.73,WeatherCatV1.14B232,2013-06-29 23:39:00,
2013-06-29 19:44:00,70.7,68.9,29.72,WSW,251,16.0,20.0,94,0.00,,,0.73,WeatherCatV1.14B232,2013-06-29 23:44:00,
2013-06-29 19:49:00,70.7,68.9,29.72,WSW,255,14.0,20.0,94,0.00,,,0.73,WeatherCatV1.14B232,2013-06-29 23:49:00,
2013-06-29 19:54:00,70.6,68.8,29.72,West,267,14.0,17.0,94,0.00,,,0.73,WeatherCatV1.14B232,2013-06-29 23:54:00,
2013-06-29 19:59:00,70.5,68.7,29.72,West,263,15.0,19.0,94,0.00,,,0.73,WeatherCatV1.14B232,2013-06-29 23:59:00,
2013-06-29 20:02:00,70.5,68.7,29.72,West,261,16.0,18.0,94,0.00,,,0.73,WeatherCatV1.14B232,2013-06-30 00:02:00,
2013-06-29 20:07:00,70.4,68.6,29.72,West,277,16.0,18.0,94,0.00,,,0.73,WeatherCatV1.14B232,2013-06-30 00:07:00,
2013-06-29 20:12:00,70.2,68.4,29.73,West,279,12.0,18.0,94,0.00,,,0.73,WeatherCatV1.14B232,2013-06-30 00:12:00,
2013-06-29 20:17:00,70.1,68.6,29.73,WSW,256,17.0,18.0,95,0.00,,,0.73,WeatherCatV1.14B232,2013-06-30 00:17:00,
2013-06-29 20:22:00,70.0,68.5,29.73,West,271,15.0,19.0,95,0.00,,,0.73,WeatherCatV1.14B232,2013-06-30 00:22:00,
2013-06-29 20:27:00,69.9,68.4,29.73,West,269,14.0,20.0,95,0.00,,,0.73,WeatherCatV1.14B232,2013-06-30 00:27:00,
2013-06-29 20:32:00,69.7,68.2,29.73,West,273,17.0,19.0,95,0.00,,,0.73,WeatherCatV1.14B232,2013-06-30 00:32:00,
2013-06-29 20:37:00,69.7,68.2,29.74,WSW,254,17.0,20.0,95,0.00,,,0.73,WeatherCatV1.14B232,2013-06-30 00:37:00,
2013-06-29 20:42:00,69.6,68.1,29.74,WSW,256,16.0,18.0,95,0.00,,,0.73,WeatherCatV1.14B232,2013-06-30 00:42:00,
2013-06-29 20:47:00,69.5,68.0,29.74,WSW,250,14.0,18.0,95,0.00,,,0.73,WeatherCatV1.14B232,2013-06-30 00:47:00,
2013-06-29 20:52:00,69.5,68.0,29.74,West,270,9.0,18.0,95,0.00,,,0.73,WeatherCatV1.14B232,2013-06-30 00:52:00,
2013-06-29 20:57:00,69.6,68.1,29.74,West,266,14.0,18.0,95,0.00,,,0.73,WeatherCatV1.14B232,2013-06-30 00:57:00,
2013-06-29 21:02:00,69.5,68.0,29.75,West,281,13.0,18.0,95,0.00,,,0.73,WeatherCatV1.14B232,2013-06-30 01:02:00,
2013-06-29 21:07:00,69.4,67.9,29.75,WSW,239,17.0,19.0,95,0.00,,,0.73,WeatherCatV1.14B232,2013-06-30 01:07:00,
2013-06-29 21:12:00,69.4,67.9,29.75,WSW,238,17.0,17.0,95,0.00,,,0.73,WeatherCatV1.14B232,2013-06-30 01:12:00,
2013-06-29 21:17:00,69.5,68.0,29.75,West,264,14.0,20.0,95,0.00,,,0.73,WeatherCatV1.14B232,2013-06-30 01:17:00,
2013-06-29 21:22:00,69.6,68.1,29.75,West,259,14.0,20.0,95,0.00,,,0.73,WeatherCatV1.14B232,2013-06-30 01:22:00,
2013-06-29 21:27:00,69.6,68.1,29.76,WSW,242,15.0,20.0,95,0.00,,,0.73,WeatherCatV1.14B232,2013-06-30 01:27:00,
2013-06-29 21:32:00,69.7,68.2,29.75,West,259,13.0,19.0,95,0.00,,,0.73,WeatherCatV1.14B232,2013-06-30 01:32:00,
2013-06-29 21:37:00,69.7,68.2,29.76,West,271,15.0,18.0,95,0.00,,,0.73,WeatherCatV1.14B232,2013-06-30 01:37:00,
2013-06-29 21:42:00,69.7,68.2,29.76,West,274,14.0,19.0,95,0.00,,,0.73,WeatherCatV1.14B232,2013-06-30 01:42:00,
2013-06-29 21:47:00,69.8,68.3,29.76,West,276,15.0,18.0,95,0.00,,,0.73,WeatherCatV1.14B232,2013-06-30 01:47:00,
2013-06-29 21:52:00,69.8,68.3,29.76,West,278,13.0,18.0,95,0.00,,,0.73,WeatherCatV1.14B232,2013-06-30 01:52:00,
2013-06-29 21:53:00,69.8,68.3,29.76,West,263,12.0,18.0,95,0.00,,,0.73,WeatherCatV1.14B232,2013-06-30 01:53:00,
2013-06-29 21:58:00,69.8,68.3,29.76,WSW,252,15.0,18.0,95,0.00,,,0.73,WeatherCatV1.14B232,2013-06-30 01:58:00,
2013-06-29 22:03:00,69.7,68.2,29.76,West,260,14.0,17.0,95,0.00,,,0.73,WeatherCatV1.14B232,2013-06-30 02:03:00,
2013-06-29 22:08:00,69.8,68.0,29.76,WSW,256,16.0,19.0,94,0.00,,,0.73,WeatherCatV1.14B232,2013-06-30 02:08:00,
2013-06-29 22:13:00,69.9,68.1,29.76,West,273,13.0,21.0,94,0.00,,,0.73,WeatherCatV1.14B232,2013-06-30 02:13:00,
2013-06-29 22:18:00,69.9,68.1,29.76,West,261,10.0,16.0,94,0.00,,,0.73,WeatherCatV1.14B232,2013-06-30 02:18:00,
2013-06-29 22:23:00,69.9,68.1,29.76,West,263,12.0,17.0,94,0.00,,,0.73,WeatherCatV1.14B232,2013-06-30 02:23:00,
2013-06-29 22:28:00,69.9,68.1,29.76,WSW,258,15.0,16.0,94,0.00,,,0.73,WeatherCatV1.14B232,2013-06-30 02:28:00,
2013-06-29 22:33:00,69.6,68.1,29.76,WSW,256,14.0,17.0,95,0.00,,,0.73,WeatherCatV1.14B232,2013-06-30 02:33:00,
2013-06-29 22:38:00,69.5,68.0,29.76,WSW,258,12.0,17.0,95,0.00,,,0.73,WeatherCatV1.14B232,2013-06-30 02:38:00,
2013-06-29 22:43:00,69.5,68.0,29.77,WSW,254,15.0,20.0,95,0.00,,,0.73,WeatherCatV1.14B232,2013-06-30 02:43:00,
2013-06-29 22:48:00,69.5,68.0,29.77,West,261,14.0,15.0,95,0.00,,,0.73,WeatherCatV1.14B232,2013-06-30 02:48:00,
2013-06-29 22:53:00,69.5,68.0,29.77,West,267,12.0,18.0,95,0.00,,,0.73,WeatherCatV1.14B232,2013-06-30 02:53:00,
2013-06-29 22:58:00,69.4,67.9,29.77,West,271,14.0,17.0,95,0.00,,,0.73,WeatherCatV1.14B232,2013-06-30 02:58:00,
2013-06-29 23:03:00,69.4,67.9,29.77,West,275,13.0,19.0,95,0.00,,,0.73,WeatherCatV1.14B232,2013-06-30 03:03:00,
2013-06-29 23:08:00,69.5,68.0,29.77,West,263,15.0,16.0,95,0.00,,,0.73,WeatherCatV1.14B232,2013-06-30 03:08:00,
2013-06-29 23:13:00,69.4,67.9,29.77,WSW,240,12.0,16.0,95,0.00,,,0.73,WeatherCatV1.14B232,2013-06-30 03:13:00,
2013-06-29 23:18:00,69.4,67.9,29.78,West,259,12.0,15.0,95,0.00,,,0.73,WeatherCatV1.14B232,2013-06-30 03:18:00,
2013-06-29 23:23:00,69.4,67.9,29.78,West,273,12.0,15.0,95,0.00,,,0.73,WeatherCatV1.14B232,2013-06-30 03:23:00,
2013-06-29 23:28:00,69.4,67.6,29.78,WSW,248,12.0,17.0,94,0.00,,,0.73,WeatherCatV1.14B232,2013-06-30 03:28:00,
2013-06-29 23:33:00,69.4,67.9,29.78,WSW,250,15.0,15.0,95,0.00,,,0.73,WeatherCatV1.14B232,2013-06-30 03:33:00,
2013-06-29 23:38:00,69.7,68.2,29.78,WSW,250,14.0,16.0,95,0.00,,,0.73,WeatherCatV1.14B232,2013-06-30 03:38:00,
2013-06-29 23:43:00,69.7,67.9,29.78,West,267,13.0,15.0,94,0.00,,,0.73,WeatherCatV1.14B232,2013-06-30 03:43:00,
2013-06-29 23:48:00,69.7,67.9,29.78,WSW,249,12.0,16.0,94,0.00,,,0.73,WeatherCatV1.14B232,2013-06-30 03:48:00,
2013-06-29 23:53:00,69.9,68.1,29.78,West,281,11.0,15.0,94,0.00,,,0.73,WeatherCatV1.14B232,2013-06-30 03:53:00,
2013-06-29 23:58:00,70.1,68.3,29.78,West,279,12.0,14.0,94,0.00,,,0.73,WeatherCatV1.14B232,2013-06-30 03:58:00,